Karlovy Vary, Czech Republic

11:37 AM CET on January 16, 2018 (GMT +0100)
Karlovy Vary

Weather History for LKKV - November, 2011

Change the Weather History Date:

Saturday, November 12, 2011

  Actual Average (EDQM) Record (EDQM)
Temperature  
Mean Temperature 28 °F -  
Max Temperature 32 °F 39 °F 54 °F (2014)
Min Temperature 24 °F 33 °F 25 °F (2013)
Degree Days  
Heating Degree Days 37    
Moisture  
Dew Point 27 °F    
Average Humidity 93    
Maximum Humidity 100    
Minimum Humidity 86    
Precipitation  
Precipitation 0.00 in - - ()
Sea Level Pressure  
Sea Level Pressure 30.50 in    
Wind  
Wind Speed 5 mph ()    
Max Wind Speed 9 mph    
Max Gust Speed -    
Visibility 2.6 miles    
Events      
Averages and records for this station are not official NWS values.
T = Trace of Precipitation, MM = Missing Value Source: Averaged Metar Reports

Daily Weather History Graph

Daily Weather History Graph

Search for Another Location

Airport or City:

Trip Planner

Search our weather history database for the weather conditions in past years. The results will help you decide how hot, cold, wet, or windy it might be!

Date:

Astronomy

Nov. 12, 2011 Rise Set
Actual Time 7:16 AM CET 4:28 PM CET
Civil Twilight 6:40 AM CET 5:03 PM CET
Nautical Twilight 6:01 AM CET 5:42 PM CET
Astronomical Twilight 5:23 AM CET 6:20 PM CET
Moon 5:18 PM CET (11/12) 8:54 AM CET (11/12)
Length of Visible Light 10h 22m
Length of Day
9h 12m
Full, 98% of the Moon is Illuminated
Nov 12
Full
Nov 18
Last Quarter
Nov 25
New
Dec 2
First Quarter
Dec 10
Full

Hourly Weather History & Observations

Time (CET) Temp. Windchill Dew Point Humidity Pressure Visibility Wind Dir Wind Speed Gust Speed Precip Events Conditions
12:00 AM 28.4 °F 20.4 °F 26.6 °F 93% 30.39 in - ESE 8.1 mph - N/A   Clear
1:00 AM 28.4 °F - 26.6 °F 93% 30.39 in 4.3 mi Variable 2.3 mph - N/A   Mostly Cloudy
2:00 AM 26.6 °F 21.2 °F 24.8 °F 93% 30.42 in 3.1 mi ENE 4.6 mph - N/A   Mostly Cloudy
3:00 AM 26.6 °F 22.6 °F 26.6 °F 100% 30.42 in 2.2 mi North 3.5 mph - N/A   Overcast
4:00 AM 28.4 °F 23.3 °F 26.6 °F 93% 30.42 in 1.9 mi NE 4.6 mph - N/A   Overcast
5:00 AM 28.4 °F 23.3 °F 26.6 °F 93% 30.42 in 3.7 mi ESE 4.6 mph - N/A   Overcast
6:00 AM 28.4 °F 21.2 °F 26.6 °F 93% 30.45 in 4.3 mi East 6.9 mph - N/A   Overcast
7:00 AM 28.4 °F 19.7 °F 26.6 °F 93% 30.45 in 3.7 mi ESE 9.2 mph - N/A   Overcast
7:30 AM 28.4 °F 19.7 °F 26.6 °F 93% 30.48 in 3.1 mi East 9.2 mph - N/A   Overcast
8:00 AM 28.4 °F 19.7 °F 26.6 °F 93% 30.48 in 3.1 mi ESE 9.2 mph - N/A   Mostly Cloudy
8:30 AM 28.4 °F 20.4 °F 26.6 °F 93% 30.48 in 2.5 mi ESE 8.1 mph - N/A   Overcast
9:00 AM 28.4 °F 20.4 °F 26.6 °F 93% 30.48 in 2.5 mi ESE 8.1 mph - N/A   Overcast
9:30 AM 28.4 °F 19.7 °F 26.6 °F 93% 30.51 in 2.8 mi East 9.2 mph - N/A   Overcast
10:00 AM 28.4 °F 22.2 °F 26.6 °F 93% 30.51 in 2.8 mi ENE 5.8 mph - N/A   Overcast
10:30 AM 28.4 °F 21.2 °F 26.6 °F 93% 30.51 in 2.8 mi East 6.9 mph - N/A   Overcast
11:00 AM 30.2 °F 23.4 °F 26.6 °F 86% 30.51 in 3.1 mi ESE 6.9 mph - N/A   Overcast
11:30 AM 30.2 °F 22.6 °F 26.6 °F 86% 30.51 in 3.1 mi East 8.1 mph - N/A   Overcast
12:00 PM 30.2 °F 24.3 °F 28.4 °F 93% 30.51 in 3.1 mi East 5.8 mph - N/A   Mostly Cloudy
12:30 PM 32.0 °F 27.5 °F 28.4 °F 87% 30.51 in 3.1 mi ESE 4.6 mph - N/A   Mostly Cloudy
1:00 PM 32.0 °F 27.5 °F 28.4 °F 87% 30.51 in 3.1 mi SE 4.6 mph - N/A   Mostly Cloudy
1:30 PM 30.2 °F 23.4 °F 28.4 °F 93% 30.51 in 3.1 mi ESE 6.9 mph - N/A   Mostly Cloudy
2:00 PM 30.2 °F 25.4 °F 28.4 °F 93% 30.51 in 2.8 mi ESE 4.6 mph - N/A   Mostly Cloudy
2:30 PM 32.0 °F 27.5 °F 28.4 °F 87% 30.51 in 2.8 mi ESE 4.6 mph - N/A   Mostly Cloudy
3:00 PM 32.0 °F 28.7 °F 28.4 °F 87% 30.51 in 2.5 mi ESE 3.5 mph - N/A   Mostly Cloudy
3:30 PM 30.2 °F 25.4 °F 28.4 °F 93% 30.54 in 2.5 mi ESE 4.6 mph - N/A   Mostly Cloudy
4:00 PM 30.2 °F 22.6 °F 28.4 °F 93% 30.54 in 1.9 mi East 8.1 mph - N/A   Mostly Cloudy
4:30 PM 30.2 °F 25.4 °F 28.4 °F 93% 30.54 in 1.9 mi East 4.6 mph - N/A   Mostly Cloudy
5:00 PM 30.2 °F 25.4 °F 28.4 °F 93% 30.54 in 2.5 mi ESE 4.6 mph - N/A   Mostly Cloudy
5:30 PM 28.4 °F - 28.4 °F 100% 30.54 in 2.5 mi Variable 2.3 mph - N/A   Mostly Cloudy
6:00 PM 28.4 °F 24.6 °F 28.4 °F 100% 30.54 in 0.9 mi ESE 3.5 mph - N/A   Overcast
6:30 PM 28.4 °F 24.6 °F 28.4 °F 100% 30.54 in 0.9 mi North 3.5 mph - N/A   Overcast
7:00 PM 28.4 °F - 26.6 °F 93% 30.54 in 1.9 mi Variable 2.3 mph - N/A   Scattered Clouds
7:30 PM 26.6 °F - 26.6 °F 100% 30.54 in 1.9 mi Variable 2.3 mph - N/A   Scattered Clouds
8:00 PM 26.6 °F 22.6 °F 24.8 °F 93% 30.54 in 0.9 mi East 3.5 mph - N/A   Scattered Clouds
9:00 PM 24.8 °F - 24.8 °F 100% 30.54 in 1.9 mi Variable 1.2 mph - N/A   Partly Cloudy
10:00 PM 24.8 °F - 24.8 °F 100% 30.54 in 1.9 mi ESE 2.3 mph - N/A   Partly Cloudy
11:00 PM 26.6 °F - 24.8 °F 93% 30.57 in 1.9 mi Calm Calm - N/A   Partly Cloudy